Regional Weather Roundup
Issued by NWS

Home | Current Version | Previous Version | Text Only | Print | Product List | Glossary Off
Versions: 1 2 3 4 5 6 7 8 9 10 11 12 13 14 15 16 17 18 19 20 21 22 23 24 25 26 27 28 29 30 31 32 33 34 35 36 37 38 39 40 41 42 43 44 45 46 47 48 49 50

000
ASUS43 KMPX 210610
RWRMN
WEATHER ROUNDUP FOR MINNESOTA
NATIONAL WEATHER SERVICE TWIN CITIES/CHANHASSEN MN
1200 AM CST SUN DEC 21 2014


NOTE: "FAIR" INDICATES FEW OR NO CLOUDS BELOW 12,000 FEET WITH NO
SIGNIFICANT WEATHER AND/OR OBSTRUCTIONS TO VISIBILITY. N/A MEANS
CURRENT SKY AND/OR WEATHER CONDITIONS ARE NOT AVAILABLE.

MNZ060>063-068>070-210700-
   Twin Cities Metro

CITY           SKY/WX    TMP DP  RH WIND       PRES   REMARKS
TWIN CITIES    CLOUDY    31  26  82 SE9       30.07F WCI  23
6HR MIN TEMP:  31; 6HR MAX TEMP:  32;

ST PAUL        CLOUDY    31  27  85 S8        30.09F WCI  23
CRYSTAL        CLOUDY    32  27  81 SE9       30.04F WCI  24
BLAINE         CLOUDY    34  30  86 SE8       30.06F WCI  27
LAKEVILLE      CLOUDY    28  27  93 SE6       30.07S WCI  22
EDEN PRAIRIE   CLOUDY    31  26  82 SE10      30.04F WCI  22
6HR MIN TEMP:  31; 6HR MAX TEMP:  32;

SOUTH ST PAUL  CLOUDY    32  28  84 SE5       30.08S WCI  27
LAKE ELMO      CLOUDY    32  30  93 S6        30.08F WCI  26
$$
MNZ001>005-007-008-013>017-022>024-027-028-210700-
   Northwest Minnesota

CITY           SKY/WX    TMP DP  RH WIND       PRES   REMARKS
BEMIDJI        LGT SNOW  28  27  94 SE14      29.90F WCI  17
HALLOCK        CLOUDY    30  30 100 CALM      29.83F FOG
ROSEAU         LGT SNOW  30  27  86 S8        29.87F WCI  23
WARROAD        CLOUDY    30  27  86 S9        29.88F FOG     WCI  22
THIEF RVR FALL CLOUDY    30  28  93 S16       29.86F WCI  19
FOSSTON        CLOUDY    28  27  93 S16       29.88F FOG     WCI  17
DETROIT LAKES  CLOUDY    30  30 100 S17G24    29.90F WCI  18
MOORHEAD       CLOUDY    32  32 100 S16G23    29.90F FOG     WCI  21
PARK RAPIDS    CLOUDY    29  27  92 S17       29.93F WCI  17
MAHNOMEN       CLOUDY    29  28  94 S15G21    29.88F FOG     WCI  18
$$
MNZ006-009>011-018-025>026-210700-
   North Central Minnesota

CITY           SKY/WX    TMP DP  RH WIND       PRES   REMARKS
BAUDETTE       CLOUDY    29  27  92 S9        29.90F WCI  20
FLAG ISLAND    DRIZZLE   28  28 100 S16       29.88F WCI  17
INTL FALLS     CLOUDY    28  26  92 S6        29.94F WCI  22
6HR MIN TEMP:  28; 6HR MAX TEMP:  30;

WASKISH        LGT SNOW  28  28 100 CALM      29.92F
BIG FORK       MIX PCPN  28  27  93 S12G18    29.95F WCI  18
LONGVILLE      CLOUDY    27  27 100 S12G17    29.97S FOG     WCI  16
GRAND RAPIDS   CLOUDY    27  25  93 S12       29.97F WCI  16
CRANE LAKE     CLOUDY    27  27 100 S7        29.99F FOG     WCI  19
ORR            CLOUDY    27  25  93 S8        29.95S WCI  18
COOK           CLOUDY    28  27  93 S7        29.98F FOG     WCI  21
WALKER         CLOUDY    27  26  94 SE10      29.93F WCI  18
$$
MNZ012-019>021-037-210700-
   Northeast Minnesota

CITY           SKY/WX    TMP DP  RH WIND       PRES   REMARKS
DULUTH         CLOUDY    30  25  81 S13G20    30.01F WCI  20
6HR MIN TEMP:  30; 6HR MAX TEMP:  30;

ELY            CLOUDY    28  27  93 S8        30.00S FOG     WCI  20
HIBBING        CLOUDY    29  25  85 S7G16     29.98F WCI  22
EVELETH        CLOUDY    30  30 100 S12       30.00F FOG     WCI  21
DULUTH HARBOR  CLOUDY    34  28  80 S10       30.07F WCI  26
TWO HARBORS    CLOUDY    34  28  80 S9        30.03F WCI  26
SILVER BAY     CLOUDY    32  27  80 S9G16     30.03F WCI  24
GRAND MARAIS     N/A     34  28  79 S18       30.09F WCI  23
G MARAIS ARPRT CLOUDY    27  23  86 S8        30.03F WCI  18
$$
MNZ029>031-032-039>041-046>048-054>057-064-210700-
   West Central Minnesota

CITY           SKY/WX    TMP DP  RH WIND       PRES   REMARKS
FERGUS FALLS   CLOUDY    28  28 100 S18       29.96R FOG     WCI  16
WHEATON        CLOUDY    28  27  93 S8        29.95S FOG     WCI  20
MORRIS         CLOUDY    30  28  93 S16       29.94F FOG     WCI  19
ALEXANDRIA     CLOUDY    29  28  96 S15       29.95F FOG     WCI  18
ELBOW LAKE     CLOUDY    29  28  98 S21       29.92F FOG     WCI  16
WADENA         CLOUDY    28  27  93 S15G21    29.93F FOG     WCI  17
GLENWOOD       CLOUDY    28  28 100 S14       29.97F FOG     WCI  17
APPLETON       CLOUDY    32  30  93 S9        29.96F FOG     WCI  24
BENSON         CLOUDY    30  28  93 S12       29.97F WCI  21
ORTONVILLE     CLOUDY    30  28  93 S10       29.93F FOG     WCI  21
MADISON        CLOUDY    36  34  93 S10       29.95F FOG
WILLMAR        CLOUDY    32  28  86 S8        30.00S WCI  25
$$
MNZ033>034-036-042>043-049>051-058-059-210700-
   Central Minnesota

CITY           SKY/WX    TMP DP  RH WIND       PRES   REMARKS
ST CLOUD       CLOUDY    32  27  81 S12       30.03S WCI  23
6HR MIN TEMP:  31; 6HR MAX TEMP:  32;

SAUK CENTRE    CLOUDY    29  28  96 S14       29.98F FOG     WCI  19
PAYNESVILLE    CLOUDY    28  28  98 SE12G21   30.00F WCI  18
AITKIN         CLOUDY    30  27  86 S9        29.99F WCI  22
PINE RIVER     CLOUDY    27  27 100 S12       30.01S FOG     WCI  16
BRAINERD       CLOUDY    27  25  92 S15G22    29.99F WCI  15
STAPLES        CLOUDY    27  27 100 SE13      29.96F FOG     WCI  16
LONG PRAIRIE   CLOUDY    28  28 100 SE16      29.97F FOG     WCI  17
LITTLE FALLS   CLOUDY    30  27  86 SE8       30.01F WCI  23
LITCHFIELD     CLOUDY    32  32 100 S6        30.02S WCI  26
BUFFALO        CLOUDY    31  28  87 SE3       30.05S
MAPLE LAKE     CLOUDY    32  30  92 S7        30.04S WCI  25
$$
MNZ037-044-045-052-053-210700-
   East Central Minnesota

CITY           SKY/WX    TMP DP  RH WIND       PRES   REMARKS
PRINCETON      CLOUDY    32  28  86 SE8       30.04F WCI  25
MORA           CLOUDY    32  28  86 S15       30.06F WCI  22
CAMBRIDGE      CLOUDY    34  25  69 SE9G18    30.03F WCI  26
RUSH CITY      CLOUDY    31  27  86 S8G16     30.06F WCI  23
MOOSE LAKE     CLOUDY    32  28  86 S8        30.01F WCI  25
HINCKLEY       CLOUDY    32  30  93 S13       30.05F WCI  22
CLOQUET        CLOUDY    30  27  86 S9G16     30.02S WCI  22
MCGREGOR       CLOUDY    30  28  93 S9        30.01F WCI  22
$$
MNZ071>073-080-081-089-090-097-098-210700-
   Southwest Minnesota

CITY           SKY/WX    TMP DP  RH WIND       PRES   REMARKS
MONTEVIDEO     CLOUDY    30  30 100 SW9       29.98F WCI  22
GRANITE FALLS  CLOUDY    32  30  92 S12       30.00S WCI  23
CANBY          CLOUDY    32  30  94 S5        29.96F FOG     WCI  27
MARSHALL       CLOUDY    30  27  86 S13       29.97S WCI  20
REDWOOD FALLS  CLOUDY    33  30  88 S12       30.00S WCI  24
OLIVIA         CLOUDY    32  30  93 S9        29.99F WCI  24
PIPESTONE      SNOW      30  28  93 S6        29.94F VSB 1/4 WCI  24
WINDOM         CLOUDY    30  30 100 S14G20    29.99S WCI  20
WORTHINGTON    CLOUDY    30  28  93 S14       29.98F WCI  20
JACKSON        CLOUDY    32  30  93 S14       30.00S WCI  22
TRACY          CLOUDY    32  31  95 S10       29.98R FOG     WCI  24
SLAYTON        CLOUDY    30  30 100 S6        29.97S FOG     WCI  24
$$
MNZ065>067-074>077-082>085-091>093-210700-
   South Central Minnesota

CITY           SKY/WX    TMP DP  RH WIND       PRES   REMARKS
MANKATO        CLOUDY    32  27  80 S9        30.04S WCI  24
NEW ULM        CLOUDY    32  30  93 S10G17    30.02S WCI  24
ST JAMES       CLOUDY    34  30  86 S14G20    30.02F WCI  24
FAIRMONT       CLOUDY    32  28  86 S14       30.02S WCI  22
GLENCOE        CLOUDY    32  31  96 SE8       30.03S WCI  25
FARIBAULT      CLOUDY    32  28  86 SE8       30.06S WCI  25
OWATONNA       CLOUDY    32  28  86 S8        30.06S FOG     WCI  25
WASECA         CLOUDY    32  30  93 SE7       30.06F FOG     WCI  26
ALBERT LEA     FOG       32  32 100 S12       30.05S VSB 3/4 WCI  23
$$
MNZ078>079-086>088-094>096-210700-
   Southeast Minnesota

CITY           SKY/WX    TMP DP  RH WIND       PRES   REMARKS
ROCHESTER      CLOUDY    30  29  96 SE14      30.07F FOG     WCI  19
6HR MIN TEMP:  30; 6HR MAX TEMP:  30;

RED WING       CLOUDY    34  27  75 SE6       30.08F WCI  29
STANTON        CLOUDY    32  28  85 S6        30.06S WCI  27
DODGE CENTER   CLOUDY    30  30 100 S12       30.06S FOG     WCI  21
WINONA         CLOUDY    34  32  93 SE5       30.14S FOG     WCI  30
AUSTIN         FOG       30  30 100 S9        30.07S VSB 3/4 WCI  22
PRESTON        CLOUDY    30  29  96 SE8       30.09F FOG     WCI  22
$$
ABBREVIATIONS USED IN REMARKS
   TC - TEMPERATURES IN CELSIUS
  WCI - WIND CHILL INDEX
   HX - HEAT INDEX
  VSB - VISIBILITY
$$



USA.gov is the U.S. government's official web portal to all federal, state and local government web resources and services.